Location: Malvern Link
(52.1333°N, 2.3000°W)
Time: 14:25:48
(UTC+00:00)

QB50P2 - Pass Details

Date: 03 July 2022
Orbit: 590 x 605 km, 97.9° (Epoch: 18 August)

Event Time Altitude Azimuth Distance (km) Brightness Sun altitude
Rises 01:59:55 0° 12° (NNE) 2,864 ? -11.4°
Reaches altitude 10° 02:02:06 10° 10° (N) 1,959 ? -11.2°
Maximum altitude 02:06:20 69° 288° (WNW) 650 ? -10.9°
Enters shadow 02:09:47 15° 207° (SSW) 1,639 ? -10.7°
